Tracking 29033 objects as of 22-Jun-2024
HD Live streaming from Space Station
objects crossing your sky now

ATLAS 5 CENTAUR DEB

Track ATLAS 5 CENTAUR DEB now!


NORAD ID: 43991
Int'l Code: 2014-055AW
Perigee: 9,009.4 km
Apogee: 34,831.1 km
Inclination: 20.4 °
Period: 789.3 minutes
Semi major axis: 28291 km
RCS: Unknown
Launch date: September 17, 2014
Source: United States (US)
Launch site: AIR FORCE EASTERN TEST RANGE (AFETR)

Note: This is SATELLITE DEBRIS
Your satellite tracking list
Your tracking list is empty




NASA's NSSDC Master Catalog

Two Line Element Set (TLE):
1 43991U 14055AW  24170.98221225 -.00000050  00000-0  00000-0 0  9992
2 43991  20.4209 239.6090 4563554   2.0018 359.4681  1.82442382 38031
Source of the keplerian elements: AFSPC